星链-37534(STARLINK-37534)

导读

STARLINK-37534(NORAD编号68897)是美国SpaceX公司星链(Starlink)星座中的一颗低轨通信卫星,属于星链第二代卫星组网批次,承担全球高速互联网接入服务。它运行在近地轨道,搭载相控阵天线与激光星间链路技术,能同时连接多用户终端,提升通信容量并降低传输延迟,优化频谱利用效率。卫星设计工作寿命约5年,退役后会主动再入大气层焚毁,是SpaceX构建全球覆盖低轨通信网络的重要组成部分,服务偏远地区、移动场景等互联网接入需求,助力缩小全球数字鸿沟。

基本信息
目录编号:
68897
目录名称:
STARLINK-37534
国际标识:
2026-097C
轨道中心:
EARTH
卫星名称:
星链-37534
卫星全名:
星链-37534(STARLINK-37534)
卫星状态:
在轨 (已飞行136 天)
发射日期:
2026-04-30 UTC
国别 :
美国 (US)
星等 :
--
该卫星已列入 空间交会检测服务 Space Conjunction Data Service (SCDS) ,当前飞行风险评估等级: 无高风险
轨道信息
数据来源 国际轨道数据 AOE轨道数据
星历时间 2026-09-13T09:18:46+0800
9小时前
查看轨道信息
2026-09-07T02:00:00+0800
6天前
查看轨道信息
半长轴 6843.695km 6843.658km
偏心率 0.0001627 0.0000929
轨道倾角 97.285° 97.287°
近地点辐角 94.945° 77.036°
升交点赤经 90.343° 84.129°
平近点角 265.198° 61.414°
近地点 464.444km 464.885km
远地点 466.672km 466.157km
周期 93.906分钟 93.906分钟
每日圈数 15.334403 15.334526
详细信息
固有亮度:
5
最大亮度:
2.5
卫星平台:
Starlink V1.0
覆盖范围:
全球
运营商:
太空探索技术公司
运营商所在国:
美国
制造商(研发单位):
太空探索技术公司
制造商所在国:
美国
使用方式:
暂无
卫星简介
Starlink 计划是 SpaceX 推出的全球卫星互联网项目,通过发射低轨道卫星,为全球尤其是偏远地区提供高速、低延迟的互联网服务。自 2019 年起,Starlink 已部署数千颗卫星,旨在缩小全球数字鸿沟,推动互联网普及。该项目还为军事、航空等行业提供通信支持,带来广泛经济效益。
2D轨道图
3D轨道图
轨道高度分析图
轨道倾角分析图
轨道综合分析图
查看轨道综合分析图
交会数据列表
事件ID 空间交会对象 最接近时刻(TCA) 交会距离 交会风险概率(CRP) 交会风险指数(CRI) 操作
CDM_260914-053506-112606-889721
2026-09-14T
05:35:49+0000
2.209 km
极远距离
2.298953E-6 低风险 0.42
CDM_260914-091605-286606-889721
2026-09-14T
09:16:09+0000
2.440 km
极远距离
1.811474E-6 低风险 0.4
CDM_260915-025104-856806-889721
2026-09-15T
02:51:45+0000
2.798 km
极远距离
1.385335E-6 低风险 0.38
与全量物体交会距离演化趋势
与全量物体交会风险概率演化趋势